Torna al catalogo

METEOR 2-17 DEB

AttivoPO
NORAD 35369·DEBRIS·🇷🇺 Russia

Lanciato Jan 30, 1988 da Plesetsk Cosmodrome

Loading…

Prossimi Passaggi (prossime 24 ore)

TLE

AggiornatoSource: Space-Track

Epoca: Sep 14, 2026, 14:01 UTC

1 35369U 88005AD  26257.58410016  .00000891  00000-0  59915-3 0  9994
2 35369  82.5252 197.8971 0018327  68.1284  53.5973 13.99578839758402

Traccia METEOR 2-17 DEB in tempo reale con AllMySat

Download on the App Store